Location: Kutna Hora
(49.9500°N, 15.2670°E)
Time: 05:11:01
(UTC+02:00)

ISS - Pass Details

Date: 25 May 2019
Orbit: 408 x 418 km, 51.6° (Epoch: 16 June)

Event Time Altitude Azimuth Distance (km) Brightness Sun altitude
Rises 00:12:30 0° 287° (WNW) 2,362 0.4 -18.6°
Reaches altitude 10° 00:14:36 10° 286° (WNW) 1,499 -0.6 -18.6°
Maximum altitude 00:17:57 76° 200° (SSW) 437 -3.9 -18.7°
Enters shadow 00:18:10 71° 161° (SSE) 445 -3.9 -18.7°
